Time,TemperatureF,DewpointF,PressureIn,WindDirection,WindDirectionDegrees,WindSpeedMPH,WindSpeedGustMPH,Humidity,HourlyPrecipIn,Conditions,Clouds,dailyrainin,SoftwareType,DateUTC
2013-05-15 00:00:00,57.0,-99.9,-100.00,NW,304,15.0,20.0,-999,-99.99,,,-99.99,,2013-05-15 07:00:00,
2013-05-15 01:00:00,56.0,-99.9,-100.00,NNW,334,8.0,9.0,-999,-99.99,,,-99.99,,2013-05-15 08:00:00,
2013-05-15 02:00:00,54.0,-99.9,-100.00,NW,320,16.0,20.0,-999,-99.99,,,-99.99,,2013-05-15 09:00:00,
2013-05-15 03:00:00,53.0,-99.9,-100.00,NNW,341,14.0,16.0,-999,-99.99,,,-99.99,,2013-05-15 10:00:00,
2013-05-15 04:00:00,55.0,-99.9,-100.00,SW,233,3.0,3.0,-999,-99.99,,,-99.99,,2013-05-15 11:00:00,
2013-05-15 05:00:00,53.0,-99.9,-100.00,West,261,5.0,8.0,-999,-99.99,,,-99.99,,2013-05-15 12:00:00,
2013-05-15 06:00:00,51.0,-99.9,-100.00,SSW,203,7.0,9.0,-999,-99.99,,,-99.99,,2013-05-15 13:00:00,
2013-05-15 07:00:00,50.0,-99.9,-100.00,SSE,151,7.0,8.0,-999,-99.99,,,-99.99,,2013-05-15 14:00:00,
2013-05-15 08:00:00,50.0,-99.9,-100.00,South,172,7.0,9.0,-999,-99.99,,,-99.99,,2013-05-15 15:00:00,
2013-05-15 10:00:00,58.0,-99.9,-100.00,SSE,157,3.0,6.0,-999,-99.99,,,-99.99,,2013-05-15 17:00:00,
2013-05-15 12:00:00,64.0,-99.9,-100.00,NE,48,5.0,10.0,-999,-99.99,,,-99.99,,2013-05-15 19:00:00,
2013-05-15 13:00:00,64.0,-99.9,-100.00,WNW,303,3.0,7.0,-999,-99.99,,,-99.99,,2013-05-15 20:00:00,
2013-05-15 14:00:00,65.0,-99.9,-100.00,North,4,3.0,8.0,-999,-99.99,,,-99.99,,2013-05-15 21:00:00,
2013-05-15 15:00:00,68.0,-99.9,-100.00,WNW,303,3.0,6.0,-999,-99.99,,,-99.99,,2013-05-15 22:00:00,
2013-05-15 16:00:00,68.0,-99.9,-100.00,NNE,20,8.0,12.0,-999,-99.99,,,-99.99,,2013-05-15 23:00:00,
2013-05-15 17:00:00,67.0,-99.9,-100.00,NNW,348,8.0,14.0,-999,-99.99,,,-99.99,,2013-05-16 00:00:00,
2013-05-15 18:00:00,65.0,-99.9,-100.00,NNW,337,10.0,16.0,-999,-99.99,,,-99.99,,2013-05-16 01:00:00,
2013-05-15 20:00:00,64.0,-99.9,-100.00,SW,229,7.0,12.0,-999,-99.99,,,-99.99,,2013-05-16 03:00:00,
2013-05-15 21:00:00,63.0,-99.9,-100.00,South,190,14.0,20.0,-999,-99.99,,,-99.99,,2013-05-16 04:00:00,
2013-05-15 23:00:00,59.0,-99.9,-100.00,WSW,249,5.0,8.0,-999,-99.99,,,-99.99,,2013-05-16 06:00:00,